Location: Unspecified
(0.0000°N, 0.0000°E)
Time: 13:40:44
(UTC+00:00)

Envisat - Pass Details

Date: 02 April 2020
Orbit: 764 x 766 km, 98.1° (Epoch: 02 April)

Event Time Altitude Azimuth Distance (km) Brightness Sun altitude
Rises 18:29:32 0° 180° (S) 3,230 6.2 -6.5°
Reaches altitude 10° 18:31:55 10° 186° (S) 2,302 5.5 -7.1°
Maximum altitude 18:36:45 45° 258° (WSW) 1,037 4.3 -8.3°
Drops below altitude 10° 18:41:33 10° 330° (NNW) 2,291 6.0 -9.5°
Sets 18:43:56 0° 336° (NNW) 3,214 6.7 -10.1°
